Regional Weather Roundup
Issued by NWS

Home | Current Version | Previous Version | Graphics & Text | Print | Product List | Glossary On
Versions: 1 2 3 4 5 6 7 8 9 10 11 12 13 14 15 16 17 18 19 20 21 22 23 24 25 26 27 28 29 30 31 32 33 34 35 36 37 38 39 40 41 42 43 44 45 46 47 48 49 50
000
ASUS43 KOAX 060902
RWRNE

WEATHER ROUNDUP FOR NEBRASKA
NATIONAL WEATHER SERVICE OMAHA NE
300 AM CST FRI MAR 06 2015

NOTES: SATELLITE DATA IS BEING USED TO AUGMENT CLOUD COVER ABOVE
       12000 FEET.
       "FAIR" INDICATES FEW OR NO CLOUDS BELOW 12,000 FEET WITH NO
       SIGNIFICANT WEATHER AND/OR OBSTRUCTIONS TO VISIBILITY.

  * THESE STATIONS DO NOT REPORT WEATHER SUCH AS RAIN...SNOW OR FOG.

NEZ001>004-019>022-054>056-061000-
NEBRASKA PANHANDLE

CITY           SKY/WX    TMP DP  RH WIND       PRES   REMARKS
SCOTTSBLUFF    PTCLDY    28  21  75 NW3       30.22S
ALLIANCE       MOCLDY    21  17  84 CALM      30.19R
CHADRON        CLOUDY    33  23  66 SW13      30.20R WCI  24
KIMBALL        MOCLDY    26  19  75 W8        30.21S WCI  18
SIDNEY         MOCLDY    31  18  58 W13       30.22S WCI  21
$$

NEZ057>060-069>072-079>082-061000-
SOUTHWEST NEBRASKA

CITY           SKY/WX    TMP DP  RH WIND       PRES   REMARKS
NORTH PLATTE   CLEAR     18  12  77 NW6       30.21S WCI  10
IMPERIAL         N/A     25  16  68 W9        30.23S WCI  15
LEXINGTON      CLEAR     22  15  74 W10       30.22S WCI  11
MCCOOK         CLEAR     28  18  66 W15       30.25S WCI  16
$$

NEZ005>010-023>029-035>040-094-061000-
NORTH CENTRAL NEBRASKA

CITY           SKY/WX    TMP DP  RH WIND       PRES   REMARKS
VALENTINE      PTCLDY    25  19  78 W10       30.15S WCI  15
AINSWORTH      CLEAR     26  19  76 W9        30.15S WCI  16
BROKEN BOW     CLEAR     28  14  55 N5        30.18F WCI  23
ORD            CLEAR     13   5  70 N5        30.17F WCI   5
$$

NEZ041-046>049-061>064-073>077-083>087-061000-
SOUTH CENTRAL NEBRASKA

CITY           SKY/WX    TMP DP  RH WIND       PRES   REMARKS
GRAND ISLAND   CLEAR     25  11  55 W10       30.20S WCI  15
AURORA         CLEAR     24  12  58 W7        30.19S WCI  16
HASTINGS       CLEAR     27  12  53 W7        30.20R WCI  19
HEBRON         CLEAR     29  13  50 SW13      30.23S WCI  19
HOLDREGE       CLEAR     27  13  54 W9        30.22S WCI  18
KEARNEY *      CLEAR     28  10  47 W6        30.21S WCI  22
YORK           CLEAR     21  10  63 SW8       30.19F WCI  12
$$

NEZ011>018-030>034-042>045-061000-
NORTHEAST NEBRASKA

CITY           SKY/WX    TMP DP  RH WIND       PRES   REMARKS
NORFOLK        CLEAR     23   8  52 W8        30.14F WCI  14
ALBION         PTCLDY    23   8  53 NW5       30.16F WCI  17
BLAIR          CLEAR     25  14  62 S17       30.18F WCI  12
COLUMBUS *     CLEAR     25   7  46 SW6       30.19F WCI  18
FREMONT        CLEAR     23  14  67 S5        30.19F WCI  17
TEKAMAH        CLEAR     21  11  65 S13       30.20F WCI   9
WAYNE          CLEAR     21   8  55 S8        30.14F WCI  12
$$

NEZ050>053-065>068-078-088>093-061000-
SOUTHEAST NEBRASKA

CITY           SKY/WX    TMP DP  RH WIND       PRES   REMARKS
LINCOLN        CLEAR     26  15  63 S7        30.22F WCI  18
OMAHA EPPLEY   PTCLDY    24  13  62 S13       30.23F WCI  12
BEATRICE       CLEAR     27  17  67 SW7       30.23F WCI  19
FALLS CITY     PTCLDY    25  15  66 S10       30.28F WCI  15
NEBRASKA CITY  PTCLDY    25  11  57 S15       30.22F WCI  12
$$

NEZ044-045-051>053-067-061000-
OMAHA AREA

CITY           SKY/WX    TMP DP  RH WIND       PRES   REMARKS
OMAHA EPPLEY   PTCLDY    24  13  62 S13       30.23F WCI  12
BLAIR          CLEAR     25  14  62 S17       30.18F WCI  12
FREMONT        CLEAR     23  14  67 S5        30.19F WCI  17
OFFUTT AFB     CLEAR     22  13  67 SE6       30.22F WCI  14
WAHOO          FAIR      17  10  73 SE3       30.20F
$$



USA.gov is the U.S. government's official web portal to all federal, state and local government web resources and services.